Change the Weather History Date:

Tuesday, September 4, 2012

  Actual Average Record
Temperature  
Mean Temperature 72 °F -  
Max Temperature 80 °F 77 °F 91 °F (1948)
Min Temperature 64 °F 53 °F 33 °F (1997)
Cooling Degree Days 7    
Growing Degree Days 22 (Base 50)    
Moisture  
Dew Point 66 °F    
Average Humidity 85    
Maximum Humidity 98    
Minimum Humidity 62    
Precipitation  
Precipitation 0.00 in - - ()
Sea Level Pressure  
Sea Level Pressure 29.89 in    
Wind  
Wind Speed 1 mph (ENE)    
Max Wind Speed 8 mph    
Max Gust Speed -    
Visibility 8 miles    
Events Fog , Rain    
Averages and records for this station are not official NWS values.
T = Trace of Precipitation, MM = Missing Value Source: NWS Daily Summary

Daily Weather History Graph

Daily Weather History Graph

Search for Another Location

Airport or City:

Trip Planner

Search our weather history database for the weather conditions in past years. The results will help you decide how hot, cold, wet, or windy it might be!

Date:

Astronomy

Sep. 04, 2012 Rise Set
Actual Time 7:06 AM EDT 8:07 PM EDT
Civil Twilight 6:37 AM EDT 8:36 PM EDT
Nautical Twilight 6:02 AM EDT 9:11 PM EDT
Astronomical Twilight 5:26 AM EDT 9:47 PM EDT
Moon 9:50 PM EDT (9/4) 11:21 AM EDT (9/4)
Length of Visible Light 13h 59m
Length of Day
13h 01m
Waning Gibbous, 84% of the Moon is Illuminated
Sep 4
Waning Gibbous
Sep 8
Last Quarter
Sep 15
New
Sep 22
First Quarter
Sep 29
Full

Hourly Weather History & Observations

Time (EDT) Temp. Heat Index Dew Point Humidity Pressure Visibility Wind Dir Wind Speed Gust Speed Precip Events Conditions
12:12 AM 68.2 °F - 62.1 °F 81% 29.92 in 10.0 mi Calm Calm - N/A   Overcast
12:32 AM 68.9 °F - 62.6 °F 80% 29.92 in 10.0 mi Calm Calm - N/A   Overcast
12:52 AM 69.1 °F - 63.0 °F 81% 29.91 in 10.0 mi Calm Calm - N/A   Overcast
1:12 AM 68.9 °F - 63.5 °F 83% 29.91 in 10.0 mi Calm Calm - N/A   Overcast
1:32 AM 67.8 °F - 63.1 °F 85% 29.90 in 10.0 mi Calm Calm - N/A   Scattered Clouds
1:52 AM 66.7 °F - 62.8 °F 87% 29.90 in 10.0 mi Calm Calm - N/A   Clear
2:12 AM 67.5 °F - 63.0 °F 85% 29.90 in 10.0 mi Calm Calm - N/A   Clear
2:32 AM 66.0 °F - 62.6 °F 89% 29.90 in 10.0 mi Calm Calm - N/A   Clear
2:52 AM 64.8 °F - 62.6 °F 93% 29.90 in 10.0 mi Calm Calm - N/A   Clear
3:13 AM 67.3 °F - 64.4 °F 90% 29.91 in 10.0 mi NNW 3.5 mph - N/A   Mostly Cloudy
3:33 AM 67.3 °F - 64.4 °F 90% 29.91 in 10.0 mi Calm Calm - N/A   Overcast
3:50 AM 67.1 °F - 64.4 °F 91% 29.90 in 10.0 mi Calm Calm - N/A   Mostly Cloudy
4:10 AM 66.4 °F - 64.0 °F 92% 29.90 in 10.0 mi Calm Calm - N/A   Clear
4:30 AM 66.2 °F - 63.5 °F 91% 29.90 in 10.0 mi Calm Calm - N/A   Clear
4:52 AM 65.8 °F - 63.0 °F 90% 29.89 in 10.0 mi Calm Calm - N/A   Clear
5:13 AM 65.5 °F - 62.8 °F 91% 29.89 in 10.0 mi NNW 5.8 mph - N/A   Clear
5:53 AM 65.5 °F - 62.6 °F 90% 29.91 in 10.0 mi North 3.5 mph - N/A   Scattered Clouds
6:13 AM 65.5 °F - 62.2 °F 89% 29.91 in 10.0 mi North 3.5 mph - N/A   Mostly Cloudy
6:33 AM 65.7 °F - 62.2 °F 89% 29.90 in 10.0 mi North 3.5 mph - N/A   Overcast
6:48 AM 66.2 °F - 62.6 °F 88% 29.90 in 10.0 mi North 4.6 mph - N/A Rain Light Rain
7:08 AM 66.2 °F - 63.1 °F 90% 29.91 in 10.0 mi Calm Calm - N/A Rain Light Rain
7:28 AM 65.5 °F - 63.7 °F 94% 29.90 in 4.0 mi SE 4.6 mph - N/A Rain Rain
7:48 AM 64.9 °F - 63.5 °F 95% 29.90 in 3.0 mi Calm Calm - N/A Rain Heavy Rain
8:09 AM 65.3 °F - 63.9 °F 95% 29.91 in 4.0 mi Calm Calm - N/A Rain Light Rain
8:29 AM 66.0 °F - 64.9 °F 96% 29.92 in 4.0 mi SE 3.5 mph - N/A Rain Light Rain
8:49 AM 66.4 °F - 65.3 °F 96% 29.92 in 4.0 mi Calm Calm - N/A Rain Light Rain
9:09 AM 66.4 °F - 65.5 °F 97% 29.91 in 1.5 mi NNW 4.6 mph - N/A Rain Rain
9:29 AM 67.5 °F - 66.6 °F 97% 29.91 in 5.0 mi North 4.6 mph - N/A Rain Rain
9:49 AM 68.2 °F - 67.1 °F 96% 29.91 in 2.5 mi NNW 3.5 mph - N/A Rain Heavy Rain
10:09 AM 68.2 °F - 67.3 °F 97% 29.91 in 1.2 mi NE 8.1 mph - N/A Rain Heavy Rain
10:29 AM 67.3 °F - 66.4 °F 97% 29.93 in 4.0 mi North 5.8 mph - N/A   Overcast
10:50 AM 67.1 °F - 66.2 °F 97% 29.92 in 4.0 mi North 6.9 mph - N/A   Overcast
11:10 AM 68.4 °F - 67.1 °F 96% 29.92 in 5.0 mi Calm Calm - N/A   Overcast
11:30 AM 70.0 °F - 68.0 °F 93% 29.92 in 7.0 mi Calm Calm - N/A   Mostly Cloudy
11:50 AM 70.9 °F - 67.6 °F 89% 29.92 in 10.0 mi ENE 3.5 mph - N/A   Overcast
12:10 PM 72.9 °F - 69.1 °F 88% 29.91 in 10.0 mi Calm Calm - N/A   Mostly Cloudy
12:30 PM 73.4 °F - 69.1 °F 86% 29.91 in 10.0 mi ESE 3.5 mph - N/A   Overcast
12:50 PM 75.4 °F - 68.0 °F 78% 29.91 in 10.0 mi East 4.6 mph - N/A   Scattered Clouds
1:10 PM 75.7 °F - 68.0 °F 77% 29.90 in 10.0 mi East 3.5 mph - N/A   Scattered Clouds
1:30 PM 76.8 °F - 67.1 °F 72% 29.91 in 10.0 mi Calm Calm - N/A   Mostly Cloudy
1:51 PM 76.5 °F - 67.5 °F 74% 29.90 in 10.0 mi ENE 3.5 mph - N/A   Scattered Clouds
2:11 PM 77.9 °F - 68.0 °F 71% 29.90 in 10.0 mi NE 5.8 mph - N/A   Scattered Clouds
2:31 PM 78.4 °F - 67.5 °F 69% 29.89 in 10.0 mi SE 3.5 mph - N/A   Mostly Cloudy
2:51 PM 78.1 °F - 66.9 °F 68% 29.89 in 10.0 mi Calm Calm - N/A   Mostly Cloudy
3:11 PM 78.8 °F - 67.1 °F 67% 29.88 in 10.0 mi ESE 3.5 mph - N/A   Scattered Clouds
3:31 PM 78.8 °F - 67.3 °F 68% 29.88 in 10.0 mi Calm Calm - N/A   Mostly Cloudy
3:51 PM 79.2 °F - 66.0 °F 64% 29.87 in 10.0 mi Calm Calm - N/A   Scattered Clouds
4:11 PM 79.2 °F - 66.4 °F 65% 29.87 in 10.0 mi East 5.8 mph - N/A   Scattered Clouds
4:31 PM 78.3 °F - 66.6 °F 67% 29.87 in 10.0 mi Calm Calm - N/A   Scattered Clouds
4:52 PM 78.1 °F - 66.4 °F 67% 29.88 in 10.0 mi Calm Calm - N/A   Clear
5:12 PM 80.1 °F 82.1 °F 66.2 °F 62% 29.87 in 10.0 mi Calm Calm - N/A   Scattered Clouds
5:32 PM 79.9 °F - 67.5 °F 66% 29.88 in 10.0 mi SSE 3.5 mph - N/A   Overcast
5:52 PM 79.2 °F - 66.7 °F 66% 29.87 in 10.0 mi Calm Calm - N/A   Scattered Clouds
6:12 PM 79.3 °F - 66.6 °F 65% 29.87 in 10.0 mi ENE 3.5 mph - N/A   Clear
6:32 PM 78.8 °F - 67.8 °F 69% 29.87 in 10.0 mi East 3.5 mph - N/A   Clear
6:52 PM 78.3 °F - 68.2 °F 71% 29.87 in 10.0 mi ESE 4.6 mph - N/A   Clear
7:12 PM 76.8 °F - 68.0 °F 74% 29.87 in 10.0 mi ESE 3.5 mph - N/A   Clear
7:33 PM 76.3 °F - 67.8 °F 75% 29.87 in 10.0 mi Calm Calm - N/A   Clear
7:53 PM 74.3 °F - 68.7 °F 83% 29.86 in 10.0 mi Calm Calm - N/A   Clear
8:13 PM 72.1 °F - 68.9 °F 89% 29.86 in 7.0 mi Calm Calm - N/A   Clear
8:33 PM 70.0 °F - 67.5 °F 92% 29.87 in 7.0 mi SSE 3.5 mph - N/A   Clear
8:53 PM 69.8 °F - 67.6 °F 93% 29.87 in 4.0 mi Calm Calm - N/A   Clear
9:13 PM 68.7 °F - 66.7 °F 93% 29.88 in 5.0 mi Calm Calm - N/A   Clear
9:33 PM 68.4 °F - 66.7 °F 95% 29.88 in 7.0 mi Calm Calm - N/A   Clear
9:53 PM 67.5 °F - 66.2 °F 96% 29.88 in 4.0 mi Calm Calm - N/A   Clear
10:08 PM 66.7 °F - 65.7 °F 96% 29.88 in 5.0 mi Calm Calm - N/A   Clear
10:29 PM 65.7 °F - 64.6 °F 96% 29.87 in 1.5 mi Calm Calm - N/A   Mist
11:09 PM 64.8 °F - 64.0 °F 98% 29.87 in 1.8 mi Calm Calm - N/A   Mist
11:29 PM 64.6 °F - 63.9 °F 98% 29.87 in 0.8 mi Calm Calm - N/A   Mist
11:49 PM 64.6 °F - 63.9 °F 98% 29.88 in 0.5 mi Calm Calm - N/A Fog Fog